Regional Weather Roundup
Issued by NWS Nashville, TN

Home | Current Version | Previous Version | Text Only | Print | Product List | Glossary On
Versions: 1 2 3 4 5 6 7 8 9 10 11 12 13 14 15 16 17 18 19 20 21 22 23 24 25 26 27 28 29 30 31 32 33 34 35 36 37 38 39 40 41 42 43 44 45 46 47 48 49 50
056
ASUS44 KOHX 110410
RWROHX
MIDDLE TENNESSEE HOURLY WEATHER ROUNDUP
NATIONAL WEATHER SERVICE NASHVILLE TN
1000 PM CST WED FEB 10 2016

NOTE: "FAIR" INDICATES FEW OR NO CLOUDS BELOW 12,000 FEET WITH
NO SIGNIFICANT WEATHER AND/OR OBSTRUCTIONS TO VISIBILITY.

* THESE REPORTS ARE NOT UNDER NWS QUALITY CONTROL AND MAY NOT
  REPORT WEATHER SUCH AS PRECIPITATION AND FOG.


TNZ005>011-023>034-057-059-062>066-078-080-110500
...NORTHERN MIDDLE TENNESSEE...

CITY           SKY/WX    TMP DP  RH WIND       PRES   REMARKS
CLARKSVILLE    CLOUDY    24  20  84 S3        30.20S
CROSSVILLE     CLOUDY    22  17  81 W10       30.11S WCI  11
DICKSON        CLOUDY    23  19  86 CALM      30.17S
LEBANON        MOCLDY    23  19  85 W5        30.18F WCI  17
LIVINGSTON     CLOUDY    24  15  68 W10       30.14R WCI  14
NASHVILLE      FLURRIES  26  19  74 CALM      30.21F
PORTLAND       MOCLDY   N/A N/A N/A W3        30.17S
ROCKWOOD       CLOUDY    22  15  74 W5        30.12R WCI  16
SMYRNA         CLOUDY    26  21  81 CALM      30.23S
SPARTA         MOCLDY    25  19  80 W5        30.16F WCI  19
$$
TNZ056-058-060-061-075>077-079-093>097-110500
...SOUTHERN MIDDLE TENNESSEE...

CITY           SKY/WX    TMP DP  RH WIND       PRES   REMARKS
COLUMBIA       CLOUDY    27  25  93 CALM      30.18R
FAYETTEVILLE   CLOUDY    28  19  69 NE3       30.18R
LEWISBURG      CLOUDY    25  19  77 CALM      30.19S
MCMINNVILLE    MOCLDY    23  21  93 W5        30.17F WCI  17
SHELBYVILLE    CLOUDY    27  21  80 CALM      30.20S
TULLAHOMA      CLOUDY    25  21  86 CALM      30.18R
WINCHESTER     CLOUDY    27  19  74 NE3       30.18F
$$


...KEY TO REMARKS...
VSB - VISIBILITY IN MILES
WCI - WIND CHILL INDEX
HX  - HEAT INDEX





USA.gov is the U.S. government's official web portal to all federal, state and local government web resources and services.